Location: Observatoires du Mont Megantic
(45.4500°N, 71.1500°W)
Time: 03:24:46
(UTC-04:00)

N. Korean satellite - Visible Passes

Search period start: 19 October 2017 00:00
Search period end: 29 October 2017 00:00
Orbit: 459 x 517 km, 97.2° (Epoch: 18 October)

Date Brightness Start Highest point End Pass type
(mag) Time Alt. Az. Time Alt. Az. Time Alt. Az.
19 Oct 7.5 19:02:33 10° S 19:05:59 49° W 19:09:24 10° NNW visible
20 Oct 10.5 06:29:44 10° ENE 06:30:33 11° E 06:31:23 10° ESE visible
20 Oct 6.4 18:39:08 10° SSE 18:42:38 80° ENE 18:46:08 10° N visible
21 Oct 7.0 18:16:05 10° SE 18:19:21 39° ENE 18:22:37 10° N visible
21 Oct 9.9 19:51:15 10° WSW 19:53:04 14° W 19:54:53 10° WNW visible
22 Oct 8.9 19:26:38 10° SSW 19:29:34 25° W 19:32:29 10° NW visible
23 Oct 7.5 19:02:44 10° S 19:06:08 48° W 19:09:31 10° NNW visible
24 Oct 10.4 06:29:41 10° ENE 06:30:42 11° E 06:31:43 10° ESE visible
24 Oct 6.4 18:39:17 10° SSE 18:42:46 81° ENE 18:46:14 10° N visible
25 Oct 6.9 18:16:13 10° SE 18:19:28 39° ENE 18:22:43 10° N visible
25 Oct 9.9 19:51:27 10° WSW 19:53:12 13° W 19:54:57 10° WNW visible
26 Oct 8.9 19:26:47 10° SSW 19:29:40 24° W 19:32:34 10° NW visible
27 Oct 7.5 19:02:52 10° S 19:06:13 48° W 19:09:35 10° NNW visible
28 Oct 10.3 06:29:37 10° ENE 06:30:48 11° E 06:31:59 10° ESE visible
28 Oct 6.3 18:39:23 10° SSE 18:42:50 81° ENE 18:46:18 10° N visible
